Location: Newark
(34.1333°N, 7.9667°W)
Time: 14:40:07
(UTC+00:00)

JUGNU - Pass Details

Date: 14 June 2023
Orbit: 835 x 862 km, 20.0° (Epoch: 22 September)

Event Time Altitude Azimuth Distance (km) Brightness Sun altitude
Rises 22:19:30 0° 243° (WSW) 3,409 ? -24.5°
Reaches altitude 10° 22:22:45 10° 227° (SW) 2,468 ? -24.9°
Enters shadow 22:23:14 12° 223° (SW) 2,351 ? -24.9°
